This is the latest recevied weather packets stored in our database for station/object KI5MKI. If no packets are shown the sender has not sent any weather packets the latest 10 day(s).
| Time | Temp. | Humidity | Pressure | Rain* | Wind** | Luminosity | Snow |
|---|---|---|---|---|---|---|---|
| 1777987452 | 21.67° C | 84% | 1006.2 hPa | 0 mm | - | 58 W/m² | - |
| 1777987149 | 21.11° C | 84% | 1005.9 hPa | 0 mm | - | 81 W/m² | - |
| 1777986846 | 21.11° C | 84% | 1005.9 hPa | 0 mm | - | 57 W/m² | - |
| 1777986544 | 21.11° C | 84% | 1006 hPa | 0 mm | - | 67 W/m² | - |
| 1777986241 | 21.11° C | 84% | 1005.8 hPa | 0 mm | - | 45 W/m² | - |
| 1777985938 | 21.11° C | 84% | 1005.8 hPa | 0 mm | - | 33 W/m² | - |
| 1777985636 | 21.11° C | 84% | 1006.1 hPa | 0 mm | - | 25 W/m² | - |
| 1777985332 | 21.11° C | 84% | 1006 hPa | 0 mm | - | 26 W/m² | - |
| 1777985029 | 21.11° C | 84% | 1005.9 hPa | 0 mm | - | 22 W/m² | - |
| 1777984725 | 21.11° C | 84% | 1005.7 hPa | 0 mm | - | 26 W/m² | - |
| 1777984422 | 21.11° C | 84% | 1005.9 hPa | 0 mm | - | 15 W/m² | - |
| 1777984118 | 21.11° C | 84% | 1005.9 hPa | 0 mm | - | 10 W/m² | - |
| 1777983816 | 21.11° C | 84% | 1005.7 hPa | 0 mm | - | 11 W/m² | - |
| 1777983512 | 21.11° C | 84% | 1005.6 hPa | 0 mm | - | 14 W/m² | - |
| 1777983209 | 21.11° C | 84% | 1005.6 hPa | 0 mm | - | 15 W/m² | - |
| 1777982905 | 21.11° C | 84% | 1005.7 hPa | 0 mm | - | 9 W/m² | - |
| 1777982601 | 21.11° C | 84% | 1005.4 hPa | 0 mm | - | 8 W/m² | - |
| 1777982300 | 21.11° C | 83% | 1005.3 hPa | 0 mm | - | 6 W/m² | - |
| 1777981997 | 21.11° C | 83% | 1005.4 hPa | 0 mm | - | 5 W/m² | - |
| 1777981695 | 21.11° C | 83% | 1005.4 hPa | 0 mm | - | 5 W/m² | - |
| 1777981391 | 21.11° C | 83% | 1005.4 hPa | 0 mm | - | 3 W/m² | - |
| 1777981088 | 21.11° C | 83% | 1005.1 hPa | 0 mm | - | 2 W/m² | - |
| 1777980784 | 21.11° C | 83% | 1005.1 hPa | 0 mm | - | 1 W/m² | - |
| 1777980480 | 21.11° C | 83% | 1005.1 hPa | 0 mm | - | 1 W/m² | - |
| 1777980178 | 21.11° C | 83% | 1005.3 hPa | 0 mm | - | 0 W/m² | - |
* Rain latest hour (hover to see other rain measurements)
** Current wind speed in m/s (hover to see current wind gust speed)